Theta_e
311 312 313 314 314 315 317 317 314 313 312 312 311 310 310 309 307 305 308 309 316 318 318 317 315 321 321 323 324 321 330 331 332 330 330 323 324 320 321 325 323 322 324 327 332
310 311 312 313 313 313 315 316 317 315 313 312 312 311 310 310 308 308 302 302 305 315 317 321 319 323 319 322 326 324 328 330 327 326 328 326 324 322 323 326 326 326 328 330 332
309 310 311 311 312 312 314 314 315 316 316 313 312 312 311 309 306 303 318 313 309 306 316 321 323 324 324 321 327 323 327 324 326 325 325 327 325 324 322 325 324 325 325 330 330
308 309 309 310 311 312 313 314 313 313 314 316 313 312 311 309 300 316 316 310 316 307 314 321 322 324 324 323 323 327 325 324 326 326 325 327 326 327 321 323 320 321 324 330 330
306 307 308 306 308 310 312 313 314 311 312 314 314 312 311 310 308 307 309 307 315 309 319 318 322 321 323 321 322 329 325 325 325 325 324 324 327 327 326 323 321 323 323 325 329
304 304 306 306 305 307 310 312 313 312 310 311 315 313 311 311 310 309 307 306 317 319 321 318 319 320 320 321 321 319 325 325 323 325 324 326 324 324 324 322 323 322 323 322 327
303 304 304 305 306 306 307 309 312 312 310 310 314 314 311 311 310 306 306 310 317 313 318 319 321 322 321 324 320 321 323 321 320 322 323 322 323 323 321 322 324 323 322 321 321
302 303 302 303 305 305 305 307 310 312 312 310 313 314 314 312 311 310 308 310 319 316 319 320 320 319 321 320 320 323 323 324 319 320 321 322 321 318 317 321 322 321 321 320 319
300 301 302 303 303 304 305 307 308 311 311 310 312 314 315 312 311 312 311 310 313 319 319 319 319 320 320 320 321 319 313 321 319 317 319 322 321 318 315 319 321 320 319 318 315
301 301 301 302 301 304 304 305 308 310 311 311 312 314 311 312 310 311 310 310 314 318 319 319 316 317 318 320 313 316 321 317 316 316 318 320 323 318 316 317 318 317 315 314 313
300 300 300 301 303 302 304 305 308 311 310 310 311 313 311 310 310 309 310 308 308 316 317 316 316 315 316 319 311 310 316 316 315 316 319 319 319 319 316 314 314 314 312 313 313
300 300 299 301 302 303 302 305 308 309 311 310 308 311 310 310 309 307 308 309 313 317 314 317 316 311 311 314 317 315 314 315 316 316 317 316 317 315 314 314 315 316 314 312 310
300 299 299 300 301 302 303 304 306 307 310 308 309 309 311 309 310 308 307 309 314 316 315 313 311 312 312 315 319 319 318 315 313 315 314 314 312 314 312 313 310 311 311 310 310
300 300 299 299 300 301 302 302 304 305 309 310 311 309 311 310 312 308 307 312 314 316 315 314 309 312 314 315 316 317 316 314 316 315 313 310 307 306 307 309 312 311 311 311 311
300 300 300 299 299 300 301 301 303 304 310 308 310 309 309 311 310 308 307 311 314 312 314 312 311 311 313 313 315 314 316 317 315 316 317 315 317 311 313 313 313 312 310 309 309
300 300 299 299 300 300 300 301 303 306 310 311 311 312 311 310 310 307 308 308 310 312 312 310 310 308 309 311 315 312 314 315 315 318 317 312 315 309 310 313 312 314 312 310 309
299 300 299 299 299 300 300 302 305 307 307 309 311 311 311 312 311 310 311 311 314 315 315 312 311 312 310 313 313 314 313 311 316 319 315 310 314 311 308 309 310 311 310 308 308
300 299 299 299 299 300 301 303 305 301 308 308 310 311 311 310 311 311 311 311 312 311 310 313 314 311 311 312 314 316 314 310 310 311 312 310 315 312 309 309 308 307 307 308 305
298 299 299 299 299 299 300 303 304 299 304 309 310 310 311 311 310 311 311 311 312 310 311 313 312 308 311 313 312 315 317 310 312 309 311 311 310 312 311 311 311 310 307 308 303
298 298 299 299 300 298 298 302 303 304 306 304 310 310 311 311 312 312 311 311 311 310 305 308 310 308 310 313 312 313 312 316 315 313 311 313 313 313 312 311 309 309 308 305 301
298 298 297 299 298 296 299 300 300 300 303 309 305 308 311 312 311 312 311 309 309 311 307 304 306 308 311 314 315 315 316 313 312 312 312 310 308 308 311 310 310 308 306 302 300
295 295 297 298 298 297 299 299 300 302 299 303 304 307 308 310 312 311 310 309 309 310 311 304 305 309 311 307 309 313 314 314 315 315 314 313 312 306 307 308 307 306 301 299 297
296 295 297 298 299 298 298 300 299 300 300 303 306 308 307 310 312 311 308 307 308 309 311 308 309 311 312 310 309 311 312 313 312 307 314 316 313 306 306 305 305 302 299 297 295
294 293 295 298 290 294 298 297 300 300 301 301 302 302 308 310 309 312 311 306 306 309 311 309 309 311 310 309 308 312 311 311 313 315 313 312 311 307 306 306 303 299 297 296 294
295 288 288 289 297 284 294 296 300 301 299 301 302 303 306 308 309 310 309 307 307 309 310 310 312 310 308 305 307 310 311 311 312 313 312 311 309 309 305 304 301 297 295 293 291
297 293 293 286 287 295 294 296 299 299 299 300 301 301 302 303 305 310 307 308 308 307 309 309 312 310 310 306 306 308 308 310 311 312 312 310 308 307 302 299 297 297 295 292 289
296 293 291 292 285 292 295 294 297 297 298 299 300 301 302 302 301 301 302 304 305 308 308 310 311 311 311 307 307 309 309 308 310 311 311 312 311 304 301 303 298 295 292 289 286
Wind_Speed
14 16 16 16 17 16 15 18 16 13 11 8 7 5 7 9 11 12 7 9 4 5 6 10 8 8 4 3 3 2 3 2 3 5 2 2 3 0 1 3 1 3 1 2 6
15 15 16 16 17 18 16 16 18 15 13 10 7 5 5 7 8 10 17 17 13 11 7 4 4 5 3 1 2 4 3 7 3 3 3 1 2 3 2 1 2 2 1 2 12
16 15 15 16 16 18 17 17 15 16 15 12 9 5 3 4 3 3 6 7 15 16 8 2 1 0 2 0 3 3 5 4 3 4 3 2 1 1 4 2 5 4 2 3 10
16 16 15 15 14 16 18 18 17 17 14 14 11 7 3 1 5 3 1 12 6 16 10 5 2 4 4 4 3 4 4 5 2 4 3 2 2 2 5 5 2 4 2 5 9
17 16 15 17 16 14 16 18 18 16 16 15 14 11 7 2 7 5 6 11 2 14 14 5 5 5 6 4 4 4 5 5 4 3 1 1 4 4 5 6 3 2 2 4 7
17 18 13 13 18 16 15 17 19 19 16 17 17 16 7 5 8 9 12 8 3 11 11 7 6 5 4 3 6 2 4 1 2 3 3 4 5 6 6 7 7 5 7 6 7
16 16 16 14 15 17 16 16 19 19 17 17 18 20 9 14 6 5 4 2 2 12 6 9 3 3 4 1 3 2 3 1 3 3 4 4 10 8 9 4 7 7 7 7 9
19 17 15 16 14 16 17 17 17 19 19 18 19 19 7 16 26 13 3 7 2 6 5 8 4 3 3 1 3 4 3 3 3 7 5 7 16 4 7 7 10 9 9 7 8
19 18 16 16 15 15 14 14 17 17 18 16 16 11 5 17 17 22 23 11 3 5 7 6 3 3 2 5 2 2 3 5 4 8 4 7 10 4 2 7 9 8 8 7 8
18 19 16 16 17 14 14 12 12 13 15 12 18 6 7 5 12 19 15 14 4 9 4 4 3 4 4 6 8 6 4 4 6 3 3 5 19 4 1 5 8 8 8 7 8
19 21 17 17 15 16 13 4 2 4 10 7 7 7 7 10 14 12 17 14 3 4 6 7 4 14 12 13 3 6 5 5 3 3 4 9 15 16 8 6 10 12 10 13 14
23 23 23 18 18 16 18 8 4 3 6 19 14 19 8 8 4 3 18 8 7 10 6 5 20 5 7 6 8 3 3 4 4 5 6 6 13 15 9 9 13 16 13 13 10
30 29 25 22 19 20 24 25 16 7 4 6 19 9 5 9 8 13 19 6 13 13 22 10 2 15 11 9 12 11 14 4 3 2 2 4 13 10 9 16 7 10 13 9 14
28 31 27 23 18 23 20 27 23 14 4 8 13 10 7 5 5 6 17 8 7 17 19 11 5 9 2 14 14 13 8 6 3 4 4 2 10 5 3 4 5 8 8 13 13
25 27 29 28 10 16 16 21 18 6 10 11 10 13 14 8 12 11 21 4 14 10 9 8 10 13 10 7 13 5 8 13 6 5 3 4 4 4 1 4 4 6 8 7 7
17 22 25 27 27 20 15 15 17 10 10 8 14 17 23 15 8 5 11 2 2 4 8 6 3 10 12 7 17 7 6 5 3 4 8 9 10 15 7 7 5 5 5 5 5
16 18 26 27 18 28 17 14 9 14 6 8 14 20 29 21 25 14 12 15 9 8 12 4 8 2 5 7 4 8 8 3 5 5 10 9 7 24 3 1 7 7 8 5 5
14 20 26 29 24 17 18 7 16 17 6 2 10 21 28 22 16 13 23 19 21 5 7 13 7 12 5 8 7 16 13 6 8 6 4 5 11 11 6 13 12 7 8 7 7
4 13 18 24 22 20 7 10 6 5 12 8 10 17 18 22 10 15 18 29 24 18 9 13 10 2 6 7 15 9 17 7 3 2 2 5 7 8 8 7 6 7 6 8 7
7 3 3 16 22 14 4 9 5 3 0 15 14 16 18 24 15 21 18 20 20 22 1 6 2 4 7 6 12 8 11 9 9 6 7 5 5 9 2 8 7 7 7 7 7
7 2 5 18 18 2 4 4 1 1 2 5 19 12 17 14 20 18 14 10 23 26 14 8 4 0 11 16 18 7 9 8 5 7 7 6 8 7 11 12 8 8 9 10 10
4 1 5 26 4 2 2 4 4 5 2 3 5 21 12 12 21 19 15 20 32 28 24 11 5 5 15 3 12 20 17 15 7 9 10 2 6 1 5 6 7 7 9 9 11
4 2 5 12 3 2 1 4 2 3 5 1 5 10 4 17 13 18 12 17 25 26 22 15 6 4 3 0 1 14 12 13 6 2 9 10 12 3 4 5 8 13 9 11 11
2 2 2 3 1 6 5 2 2 3 1 5 6 6 9 9 8 13 14 2 13 27 18 21 7 17 15 13 8 10 20 19 19 13 18 14 18 6 5 9 8 8 8 9 9
3 5 5 4 5 2 4 5 8 5 2 4 3 6 6 4 5 7 7 4 7 23 19 11 12 17 20 3 5 9 19 25 21 25 18 25 15 22 9 10 12 10 10 10 8
5 4 3 2 2 10 7 7 11 9 9 6 10 6 6 4 7 8 4 5 5 11 20 7 4 10 16 10 7 4 12 16 25 29 21 14 7 17 6 9 8 12 12 10 9
7 1 4 2 3 5 8 9 8 5 6 5 6 3 6 10 8 8 6 7 5 13 14 10 8 7 17 17 13 9 18 20 18 23 25 19 30 6 5 17 15 12 10 11 10
Wind_Direction
288 273 272 274 265 264 256 240 240 243 249 253 267 289 309 307 298 293 258 245 226 254 308 317 311 335 350 42 31 124 66 152 212 159 235 146 176 101 279 131 208 199 203 48 152
286 289 275 267 267 260 259 251 240 241 242 243 247 266 302 318 314 270 270 266 252 254 288 359 356 352 13 17 7 85 115 209 209 191 180 213 195 175 161 100 253 281 189 103 162
274 282 287 276 264 260 257 250 247 241 241 239 234 237 274 329 324 243 30 6 253 228 234 262 282 245 183 173 196 168 176 204 230 238 182 181 226 152 134 228 223 214 186 148 175
275 271 276 282 276 263 255 252 247 242 242 236 231 212 194 245 229 150 80 357 298 206 205 179 148 147 156 189 186 148 230 177 205 186 164 209 153 222 187 216 249 166 147 167 185
277 274 272 275 278 277 264 251 248 244 240 238 224 202 160 87 258 248 296 349 81 169 188 163 150 143 174 193 149 190 203 201 243 172 177 62 248 235 244 237 211 230 228 219 224
268 268 277 273 274 277 273 259 247 247 243 233 226 198 161 204 258 277 293 318 46 162 167 174 186 184 163 205 176 214 193 257 287 239 223 198 250 142 258 270 249 232 255 257 230
262 265 269 268 270 271 273 268 248 244 240 233 227 202 197 207 226 155 32 15 357 191 160 185 134 154 145 156 218 141 155 29 255 235 250 162 280 215 210 197 239 248 243 239 250
257 257 260 264 262 260 267 263 257 243 241 234 225 204 241 215 227 231 129 3 328 189 189 180 152 118 154 246 34 142 128 152 245 177 250 123 257 164 195 209 243 239 254 256 257
257 258 261 265 259 257 257 264 257 247 236 234 225 208 243 177 194 225 240 233 348 166 185 155 92 162 122 117 48 336 193 188 285 211 151 187 268 246 199 199 241 254 251 255 272
254 256 256 260 260 246 250 257 268 244 233 237 227 211 173 172 164 205 202 201 183 138 123 148 133 176 167 167 209 187 211 219 195 213 210 214 254 238 200 166 222 251 268 269 255
255 253 247 255 258 245 237 235 211 214 201 200 197 222 135 149 160 177 185 156 145 171 171 188 177 212 190 200 148 167 177 186 213 229 185 232 248 251 240 236 242 244 242 253 263
253 251 243 245 247 236 228 204 257 40 215 224 254 214 188 175 113 158 161 138 173 191 143 184 230 170 175 194 208 174 180 220 270 230 188 253 255 264 218 230 231 241 241 241 246
258 246 241 237 241 237 227 228 222 328 249 200 217 221 186 164 186 192 176 150 178 178 193 194 238 168 170 181 200 220 224 168 202 327 247 304 271 226 241 234 230 243 247 251 241
252 235 232 227 239 233 235 234 231 253 245 193 186 211 179 150 202 155 195 150 182 196 193 229 201 168 150 202 185 219 193 169 164 66 244 19 280 251 273 220 209 239 232 245 254
229 226 222 212 207 193 214 224 213 193 239 179 165 179 143 192 136 207 191 224 178 164 158 206 167 179 205 201 183 217 154 182 156 185 11 217 297 259 207 273 235 252 244 247 255
231 232 213 214 221 228 218 202 182 217 226 169 152 170 169 182 196 112 179 264 156 121 220 167 169 182 197 158 179 142 88 67 138 160 246 220 200 263 216 197 215 222 246 257 252
247 217 206 211 215 214 201 180 210 221 154 179 177 170 181 187 210 188 176 203 171 157 203 188 222 215 147 128 138 159 140 146 207 207 233 156 179 250 275 111 182 204 241 273 100
253 215 214 213 211 192 193 216 220 210 195 238 171 187 186 176 194 186 185 193 220 199 170 196 215 190 188 179 173 190 184 163 193 207 203 143 226 239 208 223 241 235 262 161 129
212 208 218 208 200 188 220 222 227 175 170 173 181 191 198 194 170 175 195 195 194 189 172 195 227 216 180 168 159 190 210 175 81 53 82 215 285 295 198 223 220 220 174 160 135
152 183 219 197 181 166 229 224 271 163 195 206 205 193 189 195 186 191 197 196 194 195 160 194 163 192 178 146 217 171 162 189 216 204 227 244 258 239 209 240 231 188 178 153 119
115 181 189 184 171 170 203 212 161 2 78 218 223 232 206 180 190 187 194 195 196 194 196 162 139 277 146 205 187 163 193 205 175 202 201 233 244 203 227 227 209 190 175 140 122
125 182 198 157 171 175 186 175 195 164 109 302 281 237 192 198 192 194 200 195 193 190 195 189 140 162 202 309 210 208 201 189 194 203 232 224 255 250 273 219 182 152 124 115 110
156 160 215 163 209 151 273 149 234 183 149 158 281 219 198 188 204 207 202 219 194 193 194 176 197 158 136 81 279 211 220 207 213 74 197 205 237 103 81 121 131 131 130 125 119
122 150 266 189 181 143 148 168 258 255 104 164 294 303 138 174 212 187 210 202 183 199 194 175 188 213 212 212 133 196 209 210 209 225 232 224 242 223 190 168 137 125 126 128 122
175 218 186 205 195 99 140 185 183 218 219 183 232 221 278 125 142 193 219 155 179 200 193 192 210 207 232 184 174 196 201 210 208 221 216 235 223 244 189 185 168 148 134 132 116
160 150 162 136 166 171 179 209 199 198 176 218 207 208 207 145 203 155 135 171 154 206 191 197 218 181 233 249 212 210 208 204 212 223 226 243 233 246 148 122 151 164 154 142 131
150 95 113 199 98 147 210 191 209 154 258 210 198 205 231 237 187 150 144 174 263 183 197 193 198 192 221 210 218 233 217 209 211 221 213 217 232 140 190 176 175 163 151 140 134